GW6246 Weather Reports


time (UTC)temp
C
wind
direction
speed
KPH
gust
KPH
rain 1hr
cm
rain 24hr
cm
rain mn
cm
humidity
%
barometer
mb
20260507075629 13 0 0.0 0.0 0.00 0.00 0.00 89 1017.3
20260507075129 13 0 0.0 0.0 0.00 0.00 0.00 89 1017.3
20260507074129 13 0 0.0 0.0 0.00 0.00 0.00 88 1017.3
20260507073629 13 0 0.0 0.0 0.00 0.00 0.00 88 1017.3
20260507072629 13 0 0.0 0.0 0.00 0.00 0.00 88 1017.3
20260507071629 13 0 0.0 0.0 0.00 0.00 0.00 87 1017.3
20260507070629 13 341 0.0 0.0 0.00 0.00 0.00 87 1017.6
20260507065629 13 351 0.0 0.0 0.00 0.00 0.00 86 1017.6
20260507065129 13 0 0.0 0.0 0.00 0.00 0.00 86 1017.6
20260507064629 13 0 0.0 0.0 0.00 0.00 0.00 86 1017.6
20260507064129 14 0 0.0 0.0 0.00 0.00 0.00 86 1017.6
20260507063629 14 0 0.0 0.0 0.00 0.00 0.00 86 1017.6
20260507062629 14 339 0.0 0.0 0.00 0.00 0.00 86 1017.6
20260507061629 14 0 0.0 0.0 0.00 0.00 0.00 86 1017.6
20260507060629 14 0 0.0 0.0 0.00 0.00 0.00 86 1017.6
20260507055629 14 0 0.0 0.0 0.00 0.00 0.00 86 1017.6
20260507054629 14 0 0.0 0.0 0.00 0.00 0.00 86 1017.6
20260507053129 15 0 0.0 0.0 0.00 0.00 0.00 85 1017.6
20260507052629 15 0 0.0 0.0 0.00 0.00 0.00 85 1017.6
20260507051629 15 0 0.0 0.0 0.00 0.00 0.00 84 1017.3
20260507051129 15 0 0.0 0.0 0.00 0.00 0.00 84 1017.3
20260507050129 15 0 0.0 0.0 0.00 0.00 0.00 83 1017.6
20260507045629 15 0 0.0 0.0 0.00 0.00 0.00 83 1017.6
20260507044129 15 0 0.0 0.0 0.00 0.00 0.00 82 1017.3
20260507043629 15 0 0.0 0.0 0.00 0.00 0.00 82 1017.6
20260507042629 15 311 0.0 0.0 0.00 0.00 0.00 81 1017.6
20260507042129 15 231 0.0 0.0 0.00 0.00 0.00 81 1017.3
20260507041629 15 0 0.0 0.0 0.00 0.00 0.00 80 1017.3
20260507041129 16 3 0.0 0.0 0.00 0.00 0.00 80 1017.3
20260507040629 16 26 0.0 0.0 0.00 0.00 0.00 79 1017.3
20260507040129 16 22 0.0 0.0 0.00 0.00 0.00 79 1017.3
20260507034629 16 29 0.0 0.0 0.00 0.00 0.00 77 1016.9
20260507033629 16 95 0.0 0.0 0.00 0.00 0.00 76 1016.9
20260507033128 16 106 0.0 0.0 0.00 0.00 0.00 75 1017.3
20260507032129 16 82 0.0 0.0 0.00 0.00 0.00 75 1016.9
20260507031629 17 3 0.0 0.0 0.00 0.00 0.00 74 1016.9
20260507031128 17 164 0.0 0.0 0.00 0.00 0.00 73 1016.9
20260507030128 17 29 0.0 0.0 0.00 0.00 0.00 72 1016.6
20260507025129 17 35 0.0 0.0 0.00 0.00 0.00 72 1016.6
20260507024129 17 65 0.0 0.0 0.00 0.00 0.00 71 1016.6
20260507023629 18 328 0.0 0.0 0.00 0.00 0.00 71 1016.6
20260507022629 18 103 0.0 0.0 0.00 0.00 0.00 71 1016.3
20260507022128 18 63 1.6 1.6 0.00 0.00 0.00 69 1016.3
20260507021128 18 54 0.0 0.0 0.00 0.00 0.00 69 1016.3
20260507020128 19 96 0.0 0.0 0.00 0.00 0.00 67 1016.3
20260507015628 19 71 1.6 1.6 0.00 0.00 0.00 67 1016.3
20260507014629 20 19 0.0 0.0 0.00 0.00 0.00 64 1016.3
20260507013628 20 13 0.0 0.0 0.00 0.00 0.00 63 1015.9
20260507012628 20 73 1.6 1.6 0.00 0.00 0.00 63 1015.9
20260507011628 20 131 1.6 1.6 0.00 0.00 0.00 63 1015.9
20260507011128 21 51 1.6 1.6 0.00 0.00 0.00 62 1015.9
20260507010128 21 77 1.6 1.6 0.00 0.00 0.00 61 1015.9
20260507005628 21 100 1.6 1.6 0.00 0.00 0.00 60 1015.9
20260507004628 21 47 1.6 1.6 0.00 0.00 0.00 58 1015.9
20260507004128 21 89 1.6 1.6 0.00 0.00 0.00 56 1015.9
20260507003128 22 27 1.6 1.6 0.00 0.00 0.00 55 1015.9
20260507002628 22 138 1.6 1.6 0.00 0.00 0.00 55 1015.6
20260507001128 22 144 1.6 1.6 0.00 0.00 0.00 52 1015.6
20260507000128 22 92 3.2 3.2 0.00 0.00 0.00 53 1015.6
20260506235128 22 106 3.2 3.2 0.00 0.00 0.00 52 1015.6
20260506233128 23 130 1.6 1.6 0.00 0.00 0.00 52 1015.6
20260506232128 23 161 1.6 1.6 0.00 0.00 0.00 50 1015.6
20260506231628 23 35 1.6 1.6 0.00 0.00 0.00 52 1015.6
20260506230628 23 58 1.6 1.6 0.00 0.00 0.00 50 1015.9
20260506230129 23 120 1.6 1.6 0.00 0.00 0.00 52 1015.9
20260506225128 23 128 1.6 1.6 0.00 0.00 0.00 53 1015.9
20260506224628 23 124 1.6 1.6 0.00 0.00 0.00 53 1016.3
20260506223628 23 68 3.2 3.2 0.00 0.00 0.00 53 1016.3
20260506223128 22 151 3.2 3.2 0.00 0.00 0.00 54 1016.3
20260506222128 22 56 3.2 3.2 0.00 0.00 0.00 55 1016.3
20260506221628 22 170 3.2 3.2 0.00 0.00 0.00 56 1016.3
20260506220628 22 143 3.2 3.2 0.00 0.00 0.00 57 1016.3
20260506215628 22 145 3.2 3.2 0.00 0.00 0.00 58 1016.6
20260506214628 22 128 1.6 1.6 0.00 0.00 0.00 58 1016.6
20260506213628 22 130 1.6 1.6 0.00 0.00 0.00 58 1016.9
20260506212628 21 138 3.2 3.2 0.00 0.00 0.00 60 1016.9
20260506211628 21 107 3.2 3.2 0.00 0.00 0.00 60 1016.9
20260506210628 21 108 3.2 3.2 0.00 0.00 0.00 60 1016.9
20260506205628 21 168 3.2 3.2 0.00 0.00 0.00 62 1016.9
20260506204628 21 133 3.2 3.2 0.00 0.00 0.00 64 1016.9
20260506204128 21 127 3.2 3.2 0.00 0.00 0.00 62 1016.9
20260506203128 20 160 3.2 3.2 0.00 0.00 0.00 63 1017.3
20260506202628 20 161 3.2 3.2 0.00 0.00 0.00 63 1017.3
20260506201628 20 169 3.2 3.2 0.00 0.00 0.00 64 1017.3
20260506201128 20 167 3.2 3.2 0.00 0.00 0.00 64 1017.3
20260506200128 20 166 3.2 3.2 0.00 0.00 0.00 64 1017.6
20260506195128 20 150 3.2 3.2 0.00 0.00 0.00 64 1017.6
20260506194627 20 150 3.2 3.2 0.00 0.00 0.00 63 1017.6
20260506193627 20 157 1.6 1.6 0.00 0.00 0.00 63 1017.6
20260506192628 20 92 1.6 1.6 0.00 0.00 0.00 57 1017.6
20260506192129 20 83 1.6 1.6 0.00 0.00 0.00 56 1017.9
20260506190128 20 14 1.6 1.6 0.00 0.00 0.00 59 1017.9
20260506185627 19 7 1.6 1.6 0.00 0.00 0.00 59 1017.9
20260506184628 19 140 1.6 1.6 0.00 0.00 0.00 60 1017.9
20260506183627 19 22 1.6 1.6 0.00 0.00 0.00 61 1018.3
20260506183127 19 11 1.6 1.6 0.00 0.00 0.00 60 1018.3
20260506182127 18 128 1.6 1.6 0.00 0.00 0.00 61 1018.3
20260506180127 18 328 1.6 1.6 0.00 0.00 0.00 63 1018.3
20260506175127 17 3 0.0 0.0 0.00 0.00 0.00 63 1018.3
20260506174628 17 152 0.0 0.0 0.00 0.00 0.00 66 1018.3
20260506173627 17 171 1.6 1.6 0.00 0.00 0.00 68 1018.3
20260506173127 17 189 1.6 1.6 0.00 0.00 0.00 69 1018.3
20260506172127 16 160 1.6 1.6 0.00 0.00 0.00 70 1018.3
20260506171627 16 199 1.6 1.6 0.00 0.00 0.00 72 1018.3
20260506171127 16 136 1.6 1.6 0.00 0.00 0.00 72 1018.3
20260506170627 16 177 1.6 1.6 0.00 0.00 0.00 72 1018.6
20260506165627 16 4 0.0 0.0 0.00 0.00 0.00 73 1018.6
20260506165127 16 265 0.0 0.0 0.00 0.00 0.00 74 1018.6
20260506164627 16 205 0.0 0.0 0.00 0.00 0.00 75 1018.6
20260506163627 15 185 0.0 0.0 0.00 0.00 0.00 76 1018.6
20260506162627 15 11 0.0 0.0 0.00 0.00 0.00 76 1018.6
20260506161627 15 50 0.0 0.0 0.00 0.00 0.00 79 1018.6
20260506160627 14 176 0.0 0.0 0.00 0.00 0.00 79 1018.6
20260506155627 13 168 0.0 0.0 0.00 0.00 0.00 81 1018.6
20260506154627 13 0 0.0 0.0 0.00 0.00 0.00 83 1018.6
20260506153627 13 0 0.0 0.0 0.00 0.00 0.00 84 1018.3
20260506152627 12 177 0.0 0.0 0.00 0.00 0.00 86 1018.3
20260506151627 12 260 0.0 0.0 0.00 0.00 0.00 88 1018.6
20260506151127 11 275 0.0 0.0 0.00 0.00 0.00 89 1018.3
20260506150127 11 0 0.0 0.0 0.00 0.00 0.00 86 1018.6
20260506145627 11 0 0.0 0.0 0.00 0.00 0.00 84 1018.3
20260506144627 11 0 0.0 0.0 0.00 0.00 0.00 83 1018.3
20260506143627 10 0 0.0 0.0 0.00 0.00 0.00 84 1018.3
20260506142627 10 0 0.0 0.0 0.00 0.00 0.00 83 1018.3
20260506141627 10 326 0.0 0.0 0.00 0.00 0.00 84 1018.3
20260506141127 10 355 0.0 0.0 0.00 0.00 0.00 84 1018.3
20260506140127 10 0 0.0 0.0 0.00 0.00 0.00 83 1017.9
20260506135627 10 330 0.0 0.0 0.00 0.00 0.00 82 1017.9
20260506135126 10 354 0.0 0.0 0.00 0.00 0.00 83 1017.9
20260506134127 10 355 0.0 0.0 0.00 0.00 0.00 83 1017.9
20260506133127 10 0 0.0 0.0 0.00 0.00 0.00 83 1017.6
20260506132627 10 0 0.0 0.0 0.00 0.00 0.00 83 1017.6
20260506132127 10 0 0.0 0.0 0.00 0.00 0.00 84 1017.6
20260506131127 10 0 0.0 0.0 0.00 0.00 0.00 84 1017.6
20260506130627 10 0 0.0 0.0 0.00 0.00 0.00 84 1017.6
20260506125627 10 353 0.0 0.0 0.00 0.00 0.00 85 1017.6
20260506125126 10 354 0.0 0.0 0.00 0.00 0.00 85 1017.3
20260506123127 9 0 0.0 0.0 0.00 0.00 0.00 85 1017.3
20260506122626 9 353 0.0 0.0 0.00 0.00 0.00 85 1017.3
20260506122126 9 351 0.0 0.0 0.00 0.00 0.00 86 1017.3
20260506121627 10 350 0.0 0.0 0.00 0.00 0.00 86 1017.3
20260506120626 10 359 0.0 0.0 0.00 0.00 0.00 86 1017.3
20260506120126 10 1 0.0 0.0 0.00 0.00 0.00 86 1017.3
20260506115126 9 356 0.0 0.0 0.00 0.00 0.00 86 1017.3
20260506114627 9 359 0.0 0.0 0.00 0.00 0.00 86 1017.3
20260506113626 10 2 0.0 0.0 0.00 0.00 0.00 86 1017.3
20260506112626 10 357 0.0 0.0 0.00 0.00 0.00 86 1017.3
20260506111126 10 359 0.0 0.0 0.00 0.00 0.00 87 1017.3
20260506110626 10 7 0.0 0.0 0.00 0.00 0.00 87 1017.3
20260506105626 10 2 0.0 0.0 0.00 0.00 0.00 87 1017.3
20260506105126 10 0 0.0 0.0 0.00 0.00 0.00 87 1017.3
20260506104126 10 1 0.0 0.0 0.00 0.00 0.00 87 1017.3
20260506102626 10 3 0.0 0.0 0.00 0.00 0.00 86 1017.3
20260506101626 10 354 0.0 0.0 0.00 0.00 0.00 84 1017.3
20260506100626 10 357 0.0 0.0 0.00 0.00 0.00 85 1017.3
20260506093626 10 1 0.0 0.0 0.00 0.00 0.00 86 1017.3
20260506092626 10 358 0.0 0.0 0.00 0.00 0.00 85 1017.3
20260506092126 10 0 0.0 0.0 0.00 0.00 0.00 85 1017.3
20260506091126 10 356 0.0 0.0 0.00 0.00 0.00 86 1017.3
20260506085626 10 351 0.0 0.0 0.00 0.00 0.00 85 1017.6
20260506084626 10 0 0.0 0.0 0.00 0.00 0.00 86 1017.6
20260506083626 10 351 0.0 0.0 0.00 0.00 0.00 86 1017.6
20260506082626 10 3 0.0 0.0 0.00 0.00 0.00 86 1017.9
20260506082126 10 359 0.0 0.0 0.00 0.00 0.00 86 1017.9
20260506081126 10 358 0.0 0.0 0.00 0.00 0.00 86 1017.9